KD0SBN-3 Weather Reports


Display with metric or nautical units.
time (UTC)temp
F
wind
direction
speed
MPH
gust
MPH
rain 1hr
in
rain 24hr
in
rain mn
in
humidity
%
barometer
mb
20260510225235 53 260 1.0 1.0 0.00 0.00 0.00 54 1033.5
20260510224731 54 116 3.0 4.0 0.00 0.00 0.00 54 1033.6
20260510224227 54 227 1.0 1.0 0.00 0.00 0.00 54 1033.6
20260510223725 54 256 0.0 0.0 0.00 0.00 0.00 54 1033.9
20260510223222 53 264 0.0 0.0 0.00 0.00 0.00 54 1033.1
20260510222719 53 272 1.0 1.0 0.00 0.00 0.00 54 1033.5
20260510222216 52 200 1.0 2.0 0.00 0.00 0.00 55 1033.5
20260510221711 53 251 1.0 1.0 0.00 0.00 0.00 55 1033.4
20260510221209 53 227 0.0 0.0 0.00 0.00 0.00 55 1033.6
20260510220705 52 184 1.0 2.0 0.00 0.00 0.00 55 1033.4
20260510220206 53 235 0.0 1.0 0.00 0.00 0.00 55 1033.4
20260510215703 55 251 0.0 1.0 0.00 0.00 0.00 52 1033.4
20260510215201 57 248 1.0 1.0 0.00 0.00 0.00 49 1033.4
20260510214658 55 249 1.0 1.0 0.00 0.00 0.00 54 1033.5
20260510214155 53 240 1.0 1.0 0.00 0.00 0.00 56 1033.6
20260510213651 53 217 2.0 3.0 0.00 0.00 0.00 56 1033.6
20260510213148 55 243 2.0 2.0 0.00 0.00 0.00 54 1033.8
20260510212644 54 294 1.0 1.0 0.00 0.00 0.00 55 1033.8
20260510212142 53 269 3.0 3.0 0.00 0.00 0.00 56 1033.8
20260510211639 53 238 2.0 3.0 0.00 0.00 0.00 57 1033.8
20260510211138 51 244 1.0 1.0 0.00 0.00 0.00 59 1033.8
20260510210636 51 169 2.0 3.0 0.00 0.00 0.00 60 1034.0
20260510210131 50 298 0.0 1.0 0.00 0.00 0.00 62 1033.8
20260510205630 50 231 1.0 2.0 0.00 0.00 0.00 61 1033.8
20260510205126 51 272 1.0 1.0 0.00 0.00 0.00 60 1034.1
20260510204622 51 267 0.0 0.0 0.00 0.00 0.00 60 1034.3
20260510204119 51 248 1.0 1.0 0.00 0.00 0.00 60 1034.0
20260510203616 51 256 2.0 2.0 0.00 0.00 0.00 61 1034.1
20260510203113 51 130 4.0 6.0 0.00 0.00 0.00 59 1034.1
20260510202612 51 256 0.0 1.0 0.00 0.00 0.00 62 1034.1
20260510202108 52 201 4.0 4.0 0.00 0.00 0.00 59 1034.3
20260510201606 50 204 1.0 1.0 0.00 0.00 0.00 62 1034.5
20260510201102 50 238 2.0 2.0 0.00 0.00 0.00 64 1034.1
20260510200558 50 198 2.0 3.0 0.00 0.00 0.00 64 1034.4
20260510200057 49 188 1.0 3.0 0.00 0.00 0.00 65 1034.1
20260510195554 50 148 4.0 6.0 0.00 0.00 0.00 63 1034.4
20260510195050 49 298 0.0 0.0 0.00 0.00 0.00 66 1034.3
20260510194545 48 259 0.0 1.0 0.00 0.00 0.00 67 1034.3
20260510194042 49 110 2.0 2.0 0.00 0.00 0.00 66 1034.3
20260510193542 50 21 2.0 3.0 0.00 0.00 0.00 65 1034.3
20260510193038 49 232 2.0 2.0 0.00 0.00 0.00 66 1034.1
20260510192537 48 50 2.0 3.0 0.00 0.00 0.00 67 1034.4
20260510192034 47 279 0.0 0.0 0.00 0.00 0.00 69 1034.4
20260510191530 47 346 1.0 1.0 0.00 0.00 0.00 69 1034.4
20260510191027 48 268 0.0 1.0 0.00 0.00 0.00 69 1034.3
20260510190525 46 215 0.0 1.0 0.00 0.00 0.00 72 1034.4
20260510190022 46 13 3.0 3.0 0.00 0.00 0.00 72 1034.1
20260510185518 47 353 1.0 1.0 0.00 0.00 0.00 70 1034.3
20260510185016 46 310 0.0 0.0 0.00 0.00 0.00 71 1034.4
20260510184513 46 334 1.0 2.0 0.00 0.00 0.00 73 1034.5
20260510184008 44 120 1.0 2.0 0.00 0.00 0.00 75 1034.5
20260510183504 46 174 2.0 2.0 0.00 0.00 0.00 72 1034.1
20260510182959 46 192 2.0 3.0 0.00 0.00 0.00 72 1034.4
20260510182456 44 67 1.0 1.0 0.00 0.00 0.00 77 1034.1
20260510181951 46 178 2.0 2.0 0.00 0.00 0.00 73 1034.3
20260510181450 46 92 1.0 3.0 0.00 0.00 0.00 74 1034.1
20260510180945 46 5 4.0 6.0 0.00 0.00 0.00 73 1034.3
20260510180443 44 341 2.0 3.0 0.00 0.00 0.00 77 1034.3
20260510175939 44 29 1.0 2.0 0.00 0.00 0.00 77 1034.3
20260510175435 45 341 2.0 2.0 0.00 0.00 0.00 76 1034.4
20260510174931 44 52 4.0 7.0 0.00 0.00 0.00 78 1034.3
20260510174430 43 162 2.0 3.0 0.00 0.00 0.00 80 1034.3
20260510173925 44 68 3.0 3.0 0.00 0.00 0.00 77 1034.1
20260510173421 44 98 4.0 6.0 0.00 0.00 0.00 76 1034.1
20260510172918 43 70 4.0 6.0 0.00 0.00 0.00 78 1034.0
20260510172414 44 95 4.0 4.0 0.00 0.00 0.00 78 1034.1
20260510171910 45 23 1.0 2.0 0.00 0.00 0.00 76 1033.9
20260510171408 44 25 2.0 3.0 0.00 0.00 0.00 77 1034.0
20260510170904 45 109 4.0 6.0 0.00 0.00 0.00 74 1033.8
20260510170401 45 3 1.0 2.0 0.00 0.00 0.00 76 1033.8
20260510165856 46 67 3.0 6.0 0.00 0.00 0.00 75 1033.9
20260510165353 47 17 3.0 6.0 0.00 0.00 0.00 74 1033.8
20260510164850 46 298 1.0 2.0 0.00 0.00 0.00 75 1033.6
20260510164348 45 123 5.0 7.0 0.00 0.00 0.00 76 1033.9
20260510163847 45 310 2.0 2.0 0.00 0.00 0.00 78 1033.6
20260510163344 45 73 1.0 1.0 0.00 0.00 0.00 78 1033.8
20260510162843 45 51 2.0 3.0 0.00 0.00 0.00 78 1033.6
20260510162341 44 357 1.0 3.0 0.00 0.00 0.00 79 1033.6
20260510161836 45 11 4.0 7.0 0.00 0.00 0.00 76 1033.5
20260510161333 46 45 1.0 2.0 0.00 0.00 0.00 76 1033.8
20260510160830 44 81 1.0 2.0 0.00 0.00 0.00 77 1033.5
20260510160327 47 54 2.0 3.0 0.00 0.00 0.00 73 1033.4
20260510155826 43 71 0.0 0.0 0.00 0.00 0.00 81 1033.6
20260510155324 42 29 1.0 2.0 0.00 0.00 0.00 81 1033.4
20260510154819 42 145 2.0 3.0 0.00 0.00 0.00 81 1033.4
20260510154315 43 125 1.0 2.0 0.00 0.00 0.00 79 1033.5
20260510153810 43 237 0.0 0.0 0.00 0.00 0.00 77 1033.4
20260510153306 42 237 0.0 1.0 0.00 0.00 0.00 79 1033.1
20260510152803 43 245 0.0 0.0 0.00 0.00 0.00 75 1033.4
20260510152259 42 294 0.0 0.0 0.00 0.00 0.00 77 1033.1
20260510151756 41 258 0.0 0.0 0.00 0.00 0.00 79 1033.1
20260510151254 40 255 0.0 1.0 0.00 0.00 0.00 81 1033.1
20260510150749 40 241 1.0 1.0 0.00 0.00 0.00 82 1033.1
20260510150246 40 314 0.0 0.0 0.00 0.00 0.00 83 1032.8
20260510145742 40 306 0.0 0.0 0.00 0.00 0.00 83 1033.0
20260510145239 39 303 0.0 0.0 0.00 0.00 0.00 84 1033.1
20260510144734 40 294 0.0 0.0 0.00 0.00 0.00 83 1033.4
20260510144232 41 305 0.0 1.0 0.00 0.00 0.00 85 1033.1
20260510143726 40 292 1.0 1.0 0.00 0.00 0.00 83 1033.1
20260510143223 39 296 0.0 0.0 0.00 0.00 0.00 85 1033.1
20260510142719 39 312 0.0 0.0 0.00 0.00 0.00 89 1033.1
20260510142216 39 309 0.0 1.0 0.00 0.00 0.00 90 1033.0
20260510141713 38 267 0.0 0.0 0.00 0.00 0.00 91 1033.1
20260510141212 38 300 0.0 0.0 0.00 0.00 0.00 92 1032.8
20260510140708 38 299 0.0 0.0 0.00 0.00 0.00 93 1033.0
20260510140207 37 295 1.0 1.0 0.00 0.00 0.00 94 1033.1
20260510135702 37 304 0.0 0.0 0.00 0.00 0.00 94 1033.1
20260510135158 37 161 0.0 0.0 0.00 0.00 0.00 95 1033.0
20260510134655 37 156 0.0 0.0 0.00 0.00 0.00 95 1033.0
20260510134153 37 103 0.0 0.0 0.00 0.00 0.00 95 1033.2
20260510133649 37 103 0.0 0.0 0.00 0.00 0.00 96 1032.8
20260510133144 36 103 0.0 0.0 0.00 0.00 0.00 96 1032.8
20260510132641 36 103 0.0 0.0 0.00 0.00 0.00 97 1032.8
20260510132138 36 104 0.0 1.0 0.00 0.00 0.00 97 1032.7
20260510131636 36 246 0.0 0.0 0.00 0.00 0.00 97 1032.8
20260510131133 36 215 0.0 0.0 0.00 0.00 0.00 97 1032.7
20260510130630 36 312 0.0 1.0 0.00 0.00 0.00 97 1032.7
20260510130127 36 311 0.0 1.0 0.00 0.00 0.00 97 1032.3
20260510125623 36 307 0.0 0.0 0.00 0.00 0.00 97 1032.4
20260510125119 36 307 0.0 0.0 0.00 0.00 0.00 97 1032.3
20260510124616 36 308 0.0 0.0 0.00 0.00 0.00 97 1032.4
20260510124113 35 309 0.0 0.0 0.00 0.00 0.00 97 1032.1
20260510123609 35 313 1.0 1.0 0.00 0.00 0.00 97 1032.2
20260510123105 35 278 1.0 1.0 0.00 0.00 0.00 97 1032.3
20260510122601 35 330 0.0 0.0 0.00 0.00 0.00 97 1032.1
20260510122057 35 315 0.0 1.0 0.00 0.00 0.00 97 1032.2
20260510121554 35 315 1.0 1.0 0.00 0.00 0.00 97 1032.1
20260510121051 35 318 0.0 0.0 0.00 0.00 0.00 97 1032.1
20260510120550 35 325 0.0 0.0 0.00 0.00 0.00 97 1031.9
20260510120050 35 329 0.0 0.0 0.00 0.00 0.00 97 1031.5
20260510115547 35 322 0.0 0.0 0.00 0.00 0.00 97 1031.8
20260510115044 35 323 1.0 1.0 0.00 0.00 0.00 97 1031.8
20260510114539 35 324 2.0 2.0 0.00 0.00 0.00 97 1031.7
20260510114036 35 334 1.0 1.0 0.00 0.00 0.00 97 1031.7
20260510113531 35 0 2.0 2.0 0.00 0.00 0.00 97 1031.8
20260510113029 35 340 2.0 2.0 0.00 0.00 0.00 97 1031.8
20260510112526 35 352 2.0 3.0 0.00 0.00 0.00 97 1031.5
20260510112022 35 1 2.0 3.0 0.00 0.00 0.00 97 1031.9
20260510111519 35 322 2.0 2.0 0.00 0.00 0.00 97 1031.7
20260510111015 35 335 1.0 1.0 0.00 0.00 0.00 97 1031.9
20260510110511 35 330 1.0 1.0 0.00 0.00 0.00 97 1031.9
20260510110008 35 4 5.0 7.0 0.00 0.00 0.00 97 1031.9
20260510105502 35 42 4.0 4.0 0.00 0.00 0.00 97 1031.7
20260510104958 35 43 1.0 2.0 0.00 0.00 0.00 97 1031.7
20260510104455 35 358 1.0 1.0 0.00 0.00 0.00 97 1031.9
20260510103951 35 338 1.0 2.0 0.00 0.00 0.00 97 1031.7
20260510103448 35 357 3.0 4.0 0.00 0.00 0.00 96 1031.8
20260510102944 35 334 4.0 4.0 0.00 0.00 0.00 96 1031.4
20260510102440 35 348 1.0 2.0 0.00 0.00 0.00 96 1031.5
20260510101937 35 340 0.0 1.0 0.00 0.00 0.00 96 1031.7
20260510101434 35 309 1.0 1.0 0.00 0.00 0.00 96 1031.3
20260510100933 35 316 0.0 0.0 0.00 0.00 0.00 96 1031.4
20260510100428 36 348 2.0 2.0 0.00 0.00 0.00 96 1031.3
20260510095925 36 306 1.0 1.0 0.00 0.00 0.00 96 1031.0
20260510095421 36 303 0.0 0.0 0.00 0.00 0.00 96 1031.1
20260510094920 36 9 1.0 1.0 0.00 0.00 0.00 96 1031.1
20260510094414 36 33 1.0 2.0 0.00 0.00 0.00 96 1031.3
20260510093911 37 327 1.0 1.0 0.00 0.00 0.00 96 1031.3
20260510093407 37 299 0.0 0.0 0.00 0.00 0.00 96 1031.1
20260510092903 37 285 0.0 0.0 0.00 0.00 0.00 96 1031.4
20260510092401 37 286 0.0 0.0 0.00 0.00 0.00 96 1031.3
20260510091855 37 306 1.0 1.0 0.00 0.00 0.00 96 1031.4
20260510091353 37 303 0.0 0.0 0.00 0.00 0.00 96 1031.4
20260510090849 37 306 0.0 0.0 0.00 0.00 0.00 95 1031.4
20260510090345 37 45 1.0 2.0 0.00 0.00 0.00 95 1031.5
20260510085841 37 27 0.0 1.0 0.00 0.00 0.00 95 1031.1
20260510085336 37 11 0.0 1.0 0.00 0.00 0.00 95 1031.4
20260510084832 37 332 2.0 2.0 0.00 0.00 0.00 95 1031.1
20260510084329 37 340 1.0 2.0 0.00 0.00 0.00 95 1031.3
20260510083826 37 349 2.0 2.0 0.00 0.00 0.00 95 1031.4
20260510083323 37 330 0.0 1.0 0.00 0.00 0.00 94 1031.4
20260510082818 37 22 3.0 4.0 0.00 0.00 0.00 94 1031.7
20260510082316 37 340 2.0 3.0 0.00 0.00 0.00 94 1031.4
20260510081814 37 6 2.0 3.0 0.00 0.00 0.00 93 1031.4
20260510081310 37 358 5.0 7.0 0.00 0.00 0.00 93 1031.5
20260510080807 38 14 2.0 4.0 0.00 0.00 0.00 92 1031.4
20260510080301 38 16 4.0 7.0 0.00 0.00 0.00 92 1031.7
20260510075759 38 345 1.0 2.0 0.00 0.00 0.00 91 1031.7
20260510075256 38 18 3.0 4.0 0.00 0.00 0.00 91 1031.7
20260510074753 38 0 8.0 10.0 0.00 0.00 0.00 91 1031.4
20260510074250 38 18 8.0 11.0 0.00 0.00 0.00 90 1031.5
20260510073746 38 3 7.0 9.0 0.00 0.00 0.00 90 1031.4
20260510073242 39 6 12.0 15.0 0.00 0.00 0.00 89 1031.3
20260510072737 39 11 9.0 11.0 0.00 0.00 0.00 88 1031.5
20260510072234 39 20 11.0 14.0 0.00 0.00 0.00 88 1031.3
20260510071731 39 30 8.0 13.0 0.00 0.00 0.00 88 1031.3
20260510071227 39 4 6.0 8.0 0.00 0.00 0.00 86 1031.1
20260510070726 39 17 5.0 7.0 0.00 0.00 0.00 85 1031.4
20260510070224 39 341 12.0 18.0 0.00 0.00 0.00 86 1031.1
20260510065723 39 13 6.0 11.0 0.00 0.00 0.00 86 1031.4
20260510065220 39 19 8.0 13.0 0.00 0.00 0.00 84 1031.3
20260510064717 39 10 6.0 7.0 0.00 0.00 0.00 83 1031.1
20260510064215 40 5 11.0 15.0 0.00 0.00 0.00 82 1031.4
20260510063711 41 13 11.0 13.0 0.00 0.00 0.00 80 1031.4
20260510063207 42 3 9.0 15.0 0.00 0.00 0.00 76 1030.9
20260510062704 43 38 8.0 13.0 0.00 0.00 0.00 73 1030.2
20260510062200 44 14 9.0 10.0 0.00 0.00 0.00 68 1030.0
20260510061655 44 29 9.0 11.0 0.00 0.00 0.00 66 1030.0
20260510061153 44 11 8.0 10.0 0.00 0.00 0.00 66 1029.4
20260510060649 46 56 6.0 9.0 0.00 0.00 0.00 62 1029.7
20260510060146 47 1 6.0 9.0 0.00 0.00 0.00 49 1029.4
20260510055642 46 18 4.0 4.0 0.00 0.00 0.00 46 1029.4
20260510055140 48 351 3.0 3.0 0.00 0.00 0.00 45 1029.2
20260510054635 47 340 2.0 4.0 0.00 0.00 0.00 44 1029.0
20260510054131 48 307 0.0 0.0 0.00 0.00 0.00 44 1028.9
20260510053630 48 307 0.0 0.0 0.00 0.00 0.00 44 1028.7
20260510053127 48 307 1.0 1.0 0.00 0.00 0.00 43 1028.9
20260510052623 48 307 0.0 1.0 0.00 0.00 0.00 43 1028.9
20260510052120 48 306 0.0 1.0 0.00 0.00 0.00 43 1028.8
20260510051615 48 305 0.0 1.0 0.00 0.00 0.00 43 1029.0
20260510051112 48 308 0.0 0.0 0.00 0.00 0.00 42 1028.9
20260510050609 49 322 0.0 0.0 0.00 0.00 0.00 42 1028.9
20260510050106 49 321 1.0 2.0 0.00 0.00 0.00 41 1029.0
20260510045604 49 9 1.0 2.0 0.00 0.00 0.00 41 1029.0
20260510045059 50 355 1.0 1.0 0.00 0.00 0.00 40 1028.7
20260510044556 49 323 0.0 1.0 0.00 0.00 0.00 40 1029.0
20260510044054 49 323 0.0 0.0 0.00 0.00 0.00 41 1029.2
20260510043549 50 323 0.0 0.0 0.00 0.00 0.00 40 1029.2
20260510043045 50 323 0.0 0.0 0.00 0.00 0.00 40 1029.2
20260510042544 50 324 0.0 1.0 0.00 0.00 0.00 40 1029.6
20260510042039 50 324 0.0 0.0 0.00 0.00 0.00 40 1029.3
20260510041537 50 327 1.0 1.0 0.00 0.00 0.00 40 1029.3
20260510041034 50 297 0.0 1.0 0.00 0.00 0.00 40 1029.3
20260510040531 51 253 0.0 0.0 0.00 0.00 0.00 40 1029.3
20260510040027 51 259 0.0 1.0 0.00 0.00 0.00 39 1029.3
20260510035523 51 278 0.0 0.0 0.00 0.00 0.00 38 1029.4
20260510035023 51 283 1.0 2.0 0.00 0.00 0.00 38 1029.4
20260510034522 52 302 2.0 3.0 0.00 0.00 0.00 37 1029.6
20260510034018 51 259 4.0 6.0 0.00 0.00 0.00 37 1029.2
20260510033513 51 311 1.0 1.0 0.00 0.00 0.00 39 1029.4
20260510033012 51 337 2.0 3.0 0.00 0.00 0.00 40 1029.6
20260510032508 50 328 1.0 1.0 0.00 0.00 0.00 41 1029.4
20260510032008 50 320 2.0 3.0 0.00 0.00 0.00 42 1029.4
20260510031504 50 315 2.0 2.0 0.00 0.00 0.00 42 1028.8
20260510031000 50 319 2.0 3.0 0.00 0.00 0.00 42 1028.8
20260510030456 50 331 2.0 3.0 0.00 0.00 0.00 41 1028.5
20260510025953 51 346 3.0 3.0 0.00 0.00 0.00 41 1028.3
20260510025450 51 356 4.0 6.0 0.00 0.00 0.00 41 1028.0
20260510024948 51 354 3.0 4.0 0.00 0.00 0.00 41 1028.0
20260510024444 51 354 3.0 3.0 0.00 0.00 0.00 41 1027.9
20260510023940 51 3 4.0 4.0 0.00 0.00 0.00 41 1028.0
20260510023436 51 338 4.0 8.0 0.00 0.00 0.00 41 1027.7
20260510022933 51 27 3.0 3.0 0.00 0.00 0.00 40 1028.0
20260510022432 52 35 3.0 4.0 0.00 0.00 0.00 40 1027.7
20260510021931 52 13 2.0 2.0 0.00 0.00 0.00 38 1027.4
20260510021430 53 64 6.0 9.0 0.00 0.00 0.00 37 1027.5
20260510020926 54 18 6.0 9.0 0.00 0.00 0.00 34 1027.2
20260510020421 55 333 5.0 7.0 0.00 0.00 0.00 32 1027.0
20260510015917 56 0 6.0 7.0 0.00 0.00 0.00 29 1026.8
20260510015413 57 8 6.0 7.0 0.00 0.00 0.00 28 1026.8
20260510014908 57 4 5.0 8.0 0.00 0.00 0.00 28 1026.6
20260510014406 57 9 8.0 8.0 0.00 0.00 0.00 28 1026.3
20260510013902 57 0 6.0 8.0 0.00 0.00 0.00 28 1026.2
20260510013357 58 359 4.0 4.0 0.00 0.00 0.00 26 1025.9
20260510012852 58 344 3.0 3.0 0.00 0.00 0.00 25 1025.8
20260510012347 58 333 1.0 2.0 0.00 0.00 0.00 25 1025.9
20260510011842 58 8 5.0 6.0 0.00 0.00 0.00 25 1025.8
20260510011338 58 322 0.0 0.0 0.00 0.00 0.00 25 1025.8
20260510010834 59 341 3.0 4.0 0.00 0.00 0.00 25 1025.5
20260510010332 59 337 2.0 2.0 0.00 0.00 0.00 25 1025.4
20260510005828 59 5 4.0 4.0 0.00 0.00 0.00 23 1025.4
20260510005325 59 1 7.0 11.0 0.00 0.00 0.00 21 1024.7
20260510004823 59 16 10.0 11.0 0.00 0.00 0.00 22 1024.3
20260510004320 59 333 3.0 4.0 0.00 0.00 0.00 22 1024.2
20260510003817 59 324 2.0 2.0 0.00 0.00 0.00 23 1024.3
20260510003314 59 284 2.0 2.0 0.00 0.00 0.00 23 1024.6
20260510002813 59 348 2.0 3.0 0.00 0.00 0.00 25 1024.3
20260510002310 59 325 3.0 6.0 0.00 0.00 0.00 25 1024.5
20260510001807 59 271 3.0 4.0 0.00 0.00 0.00 26 1024.3
20260510001305 58 273 2.0 3.0 0.00 0.00 0.00 29 1024.9
20260510000800 58 240 4.0 6.0 0.00 0.00 0.00 29 1024.7
20260510000258 58 262 5.0 7.0 0.00 0.00 0.00 29 1024.7
20260509235756 58 215 7.0 9.0 0.00 0.00 0.00 30 1024.9
20260509235252 58 262 6.0 9.0 0.00 0.00 0.00 30 1024.9
20260509234747 59 228 6.0 9.0 0.00 0.00 0.00 29 1024.9
20260509234244 61 199 8.0 11.0 0.00 0.00 0.00 26 1024.9
20260509233743 62 286 2.0 4.0 0.00 0.00 0.00 23 1024.7
20260509233240 63 303 4.0 6.0 0.00 0.00 0.00 23 1025.0
20260509232736 63 219 5.0 10.0 0.00 0.00 0.00 23 1024.9
20260509232233 63 251 4.0 7.0 0.00 0.00 0.00 23 1025.0
20260509231729 61 293 5.0 6.0 0.00 0.00 0.00 23 1025.1
20260509231227 61 277 4.0 6.0 0.00 0.00 0.00 23 1025.0
20260509230724 61 238 5.0 7.0 0.00 0.00 0.00 24 1025.3
20260509230221 60 170 2.0 4.0 0.00 0.00 0.00 25 1025.3
20260509225716 61 274 4.0 6.0 0.00 0.00 0.00 24 1025.4